AirNav   Air Wisconsin Up To $57,000 Bonus
 
 1568 users online  

89D Kelleys Island Land Field Airport
Kelleys Island, Ohio, USA

GOING TO KELLEYS ISLAND?


FAA INFORMATION EFFECTIVE 09 SEPTEMBER 2021

Location

FAA Identifier: 89D
Lat/Long: 41-36-11.4550N 082-41-06.1950W
41-36.190917N 082-41.103250W
41.6031819,-82.6850542
(estimated)
Elevation: 598.2 ft. / 182.3 m (surveyed)
Variation: 07W (2000)
From city: 1 mile NE of KELLEYS ISLAND, OH
Time zone: UTC -4 (UTC -5 during Standard Time)
Zip code: 43438

Airport Operations

Airport use: Open to the public
Activation date: 05/1949
Control tower: no
ARTCC: CLEVELAND CENTER
FSS: CLEVELAND FLIGHT SERVICE STATION
NOTAMs facility: CLE (NOTAM-D service available)
Attendance: UNATNDD
Wind indicator: lighted
Segmented circle: no
Lights: SS-SR
Landing fee: yes

Airport Communications

CTAF: 122.9
WX AWOS-3 at PCW (10 nm SW): 118.775 (419-734-9955)

Nearby radio navigation aids

VOR radial/distance  VOR name  Freq  Var
DJBr307/27.7DRYER VOR/DME113.6005W

 
NDB name  Hdg/Dist  Freq  Var  ID
PORT CLINTON065/9.742307WPCW .--. -.-. .--
GROSSE ILE152/36.541907WRYS .-. -.-- ...
TIFFIN043/38.726905WTII - .. ..

Airport Services

Parking: tiedowns
Airframe service: NONE
Powerplant service: NONE
Bottled oxygen: NONE
Bulk oxygen: NONE

Runway Information

Runway 9/27

Dimensions: 2202 x 50 ft. / 671 x 15 m
Surface: asphalt, in good condition
Runway edge lights: low intensity
RUNWAY 9  RUNWAY 27
Latitude: 41-36.198333N41-36.183500N
Longitude: 082-41.344500W082-40.862000W
Elevation: 598.2 ft.578.9 ft.
Traffic pattern: leftleft
Runway heading: 099 magnetic, 092 true279 magnetic, 272 true
Displaced threshold: 200 ft.no
Markings: basic, in good conditionbasic, in good condition
Runway end identifier lights: nono
Touchdown point: yes, no lightsyes, no lights
Obstructions: 53 ft. trees, 400 ft. from runway, 140 ft. right of centerline, 3:1 slope to clear
10 FT RD 12 FT FM RY END 125 FT L&R; 11 FT SIGN 0 FT FM 87 FT RT.
3 ft. fence, 201 ft. from runway, 100 ft. left of centerline
+10 ROAD FM 0 FT TO 92 FT, 0 FT LT TO 125 FT LEFT. +4 FT PROPANE TANK FM 104 FT TO 120 FT, 87 FT LT TO 92 FT LT. +18 FT HOUSE FM 102 FT TO 200 FT, 94 FT LT TO 125 FT LT +12 TREES FM 106 FT TO 136 FT, 80 FT LT

Airport Ownership and Management from official FAA records

Ownership: Publicly-owned
Owner: VILLAGE OF KELLEYS ISLAND
121 ADDISON ST BOX 469
KELLEYS ISLAND, OH 43438
Phone 419-746-2535
Manager: RONALD E EHRBAR
121 ADDISON ST BOX 469
KELLEYS ISLAND, OH 43438
Phone 419-504-8789
ADNL CTC: MAYOR@KELLEYSISLAND.US.

Airport Operational Statistics

Aircraft based on the field: 2
Single engine airplanes: 2
    
Aircraft operations: avg 70/day *
37% transient general aviation
34% air taxi
29% local general aviation
* for 12-month period ending 10 August 2018

Additional Remarks

DEER ON & INVOF ARPT.
FOR CD CTC CLEVELAND APCH AT 216-352-2323.

Instrument Procedures

There are no published instrument procedures at 89D.

Some nearby airports with instrument procedures:

KPCW - Erie-Ottawa International Airport (10 nm SW)
5A1 - Norwalk-Huron County Airport (22 nm S)
S24 - Sandusky County Regional Airport (24 nm SW)
14G - Fremont Airport (27 nm SW)
KLPR - Lorain County Regional Airport (28 nm SE)
 
Loc | Ops | Rwys | IFR | FBO | Links
Com | Nav | Svcs | Stats | Notes
Area around 89D (Kelleys Island Land Field Airport)
 
Road maps at: MapQuest Bing Google
 
Aerial photo
WARNING: Photo may not be current or correct
Aerial photo of 89D (Kelleys Island Land Field Airport)
Photo by David Newcomer
Photo taken 22-Sep-2017
from 2,000' AGL looking west.

Do you have a better or more recent aerial photo of Kelleys Island Land Field Airport that you would like to share? If so, please send us your photo.

 
Sectional chart

 
Airport distance calculator
Flying to Kelleys Island Land Field Airport? Find the distance to fly.

From to 89D

Sunrise and sunset
Times for 21-Sep-2021
 Local
(UTC-4)
 Zulu
(UTC)
Morning civil twilight06:5010:50
Sunrise07:1811:18
Sunset19:3023:30
Evening civil twilight19:5723:57

Current date and time
Zulu (UTC)  21-Sep-2021 17:39:16
Local (UTC-4)  21-Sep-2021 13:39:16
 
METAR
KPCW 
10nm SW 
211635Z AUTO 20015G26KT 10SM OVC022 23/19 A3005 RMK AO2
TAF
KCLE 
39nm E 
211122Z 2112/2218 17010G20KT P6SM -SHRA OVC050 FM211500 18010G20KT P6SM BKN025 FM220300 17010KT 6SM -SHRA BR BKN035 FM221100 05011KT 5SM SHRA BR OVC008 FM221300 01010G20KT 2SM SHRA BR OVC003
CYQG 
42nm N 
211153Z 2112/2212 16010G20KT P6SM BKN040 TEMPO 2112/2117 5SM -SHRA BR BECMG 2113/2115 19015G25KT FM211700 20015G25KT P6SM OVC030 TEMPO 2117/2123 5SM -SHRA BR OVC020 PROB30 2117/2123 VRB15G25KT 1SM TSRA BR OVC020CB FM212300 20008KT 2SM SHRA BR OVC007 PROB30 2123/2205 VRB15G25KT 3/4SM TSRA BR BKN005 OVC010CB FM220500 02015G25KT 2SM RA BR OVC007 RMK FCST BASED ON AUTO OBS. NXT FCST BY 211800Z
KDTW 
48nm NW 
211120Z 2112/2218 18012G19KT P6SM BKN028 OVC060 FM211900 17010KT 6SM -SHRA BKN022 OVC050 TEMPO 2122/2202 2SM TSRA BR BKN015 OVC035CB FM220300 35010KT 3SM RA BR BKN008 OVC022 FM220900 34012KT 4SM RA BR OVC008 FM221500 01015G24KT 4SM RA BR OVC010
KMFD 
48nm S 
211256Z 2113/2212 17011KT P6SM OVC020 TEMPO 2113/2115 5SM -RA BKN009 FM211500 17010G20KT P6SM BKN020 FM220300 16009KT P6SM BKN025 FM220500 17007KT P6SM BKN008 FM220800 21004KT 4SM SHRA BR OVC003
NOTAMs
Click for the latest NOTAMs
NOTAMs are issued by the DoD/FAA and will open in a separate window not controlled by AirNav.

 

 
 

Would you like to see your business listed on this page?

 If your business provides an interesting product or service to pilots, flight crews, aircraft, or users of the Kelleys Island Land Field Airport, you should consider listing it here.  To start the listing process, click on the button below
 
Add a business
 

Other Pages about Kelleys Island Land Field Airport

Update a link
 
Copyright © AirNav, LLC. All rights reserved. Privacy Policy  Contact